Puyallup, WA
on Friday, February 1, 2013

Friday
Previous Day Next Day
Daily Summary
 ActualAverage (KSEA)Record (KSEA)
Temperature
Mean Temperature °F 43°F  
Max Temperature 50°F 49°F 63°F (1962)
Min Temperature 37°F 37°F 1°F (1950)
Degree Days
Heating Degree Days 22 22  
Month to date heating degree days 22  
Since 1 July heating degree days 2671  
Cooling Degree Days 0 0  
Month to date cooling degree days 0  
Year to date cooling degree days 0  
Moisture
Dew Point 43°F   
Average Humidity 94    
Maximum Humidity 100    
Minimum Humidity 71    
Precipitation
Precipitation 0.00 in 0.13 in 1.34 in (2000)
Month to date precipitation 0.13  
Year to date precipitation 5.70  
Snow
Snow 0.00 in in 5.80 in (1989)
Month to date snowfall  
Since 1 July snowfall  
Snow Depth in   
Wind
Wind Speed 1 mph   
Max Wind Speed 5 mph   
Max Gust Speed mph   
Visibility 8 miles   
Events Fog   

Key: T is trace of precipitation, MM is missing value
Source: NWS Daily Summary
Time(PST)TemperatureDew PointHumidity Pressure Visibility Wind DirectionWind SpeedGust SpeedPrecipitationEvents Conditions
12:15 AM 46.4°F 44.6°F 93% 30.34 in 10.0 miles Calm Calm - N/A   Mostly Cloudy
12:35 AM 46.4°F 44.6°F 93% 30.34 in 6.0 miles Calm Calm - N/A   Overcast
12:55 AM 44.6°F 44.6°F 100% 30.34 in 9.0 miles Calm Calm - N/A   Overcast
1:15 AM 44.6°F 44.6°F 100% 30.35 in 9.0 miles WSW 3.5 mph - N/A   Overcast
1:35 AM 44.6°F 44.6°F 100% 30.35 in 10.0 miles Calm Calm - N/A   Overcast
1:55 AM 44.6°F 44.6°F 100% 30.36 in 10.0 miles WSW 3.5 mph - N/A   Overcast
2:15 AM 44.6°F 44.6°F 100% 30.36 in 10.0 miles West 3.5 mph - N/A   Overcast
2:35 AM 44.6°F 44.6°F 100% 30.37 in 10.0 miles Calm Calm - N/A   Overcast
2:55 AM 44.6°F 44.6°F 100% 30.37 in 10.0 miles Calm Calm - N/A   Mostly Cloudy
3:15 AM 42.8°F 42.8°F 100% 30.37 in 10.0 miles Calm Calm - N/A   Mostly Cloudy
3:35 AM 41.0°F 41.0°F 100% 30.37 in 3.0 miles Calm Calm - N/A   Scattered Clouds
3:55 AM 41.0°F 41.0°F 100% 30.37 in 7.0 miles Calm Calm - N/A   Mostly Cloudy
4:15 AM 39.2°F 39.2°F 100% 30.37 in 1.8 miles Calm Calm - N/A   Overcast
4:35 AM 39.2°F 39.2°F 100% 30.37 in 1.8 miles Calm Calm - N/A   Overcast
4:55 AM 41.0°F 41.0°F 100% 30.38 in 8.0 miles Calm Calm - N/A   Overcast
5:15 AM 41.0°F 41.0°F 100% 30.37 in 10.0 miles Calm Calm - N/A   Overcast
5:35 AM 41.0°F 41.0°F 100% 30.37 in 2.5 miles Calm Calm - N/A   Mostly Cloudy
5:55 AM 39.2°F 39.2°F 100% 30.37 in 3.0 miles Calm Calm - N/A   Overcast
6:15 AM 41.0°F 41.0°F 100% 30.37 in 5.0 miles Calm Calm - N/A   Overcast
6:35 AM 41.0°F 41.0°F 100% 30.37 in 5.0 miles Calm Calm - N/A   Overcast
6:55 AM 41.0°F 41.0°F 100% 30.37 in 4.0 miles Calm Calm - N/A   Overcast
7:15 AM 41.0°F 41.0°F 100% 30.37 in 1.2 miles Calm Calm - N/A   Overcast
7:35 AM 39.2°F 39.2°F 100% 30.37 in 0.5 miles Calm Calm - N/A Fog Fog
7:55 AM 39.2°F 39.2°F 100% 30.37 in 0.5 miles Calm Calm - N/A Fog Fog
8:15 AM 41.0°F 41.0°F 100% 30.36 in 3.0 miles Calm Calm - N/A   Mostly Cloudy
8:35 AM 41.0°F 41.0°F 100% 30.37 in 5.0 miles Calm Calm - N/A   Overcast
8:55 AM 41.0°F 41.0°F 100% 30.37 in 5.0 miles Calm Calm - N/A   Overcast
9:15 AM 42.8°F 42.8°F 100% 30.37 in 7.0 miles Calm Calm - N/A   Overcast
9:55 AM 46.4°F 46.4°F 100% 30.38 in 10.0 miles Calm Calm - N/A   Mostly Cloudy
10:15 AM 48.2°F 44.6°F 87% 30.38 in 10.0 miles Calm Calm - N/A   Mostly Cloudy
10:35 AM 46.4°F 46.4°F 100% 30.39 in 10.0 miles NW 3.5 mph - N/A   Overcast
10:55 AM 46.4°F 44.6°F 93% 30.39 in 10.0 miles Calm Calm - N/A   Mostly Cloudy
11:15 AM 46.4°F 44.6°F 93% 30.40 in 10.0 miles Calm Calm - N/A   Partly Cloudy
11:35 AM 46.4°F 44.6°F 93% 30.40 in 10.0 miles Calm Calm - N/A   Partly Cloudy
11:55 AM 50.0°F 44.6°F 82% 30.39 in 10.0 miles North 3.5 mph - N/A   Scattered Clouds
12:15 PM 46.4°F 44.6°F 93% 30.39 in 10.0 miles North 4.6 mph - N/A   Mostly Cloudy
12:35 PM 48.2°F 44.6°F 87% 30.39 in 10.0 miles North 4.6 mph - N/A   Mostly Cloudy
12:55 PM 50.0°F 42.8°F 76% 30.38 in 10.0 miles NE 4.6 mph - N/A   Scattered Clouds
1:15 PM 48.2°F 42.8°F 82% 30.38 in 10.0 miles NNE 4.6 mph - N/A   Partly Cloudy
1:35 PM 50.0°F 41.0°F 71% 30.37 in 10.0 miles ENE 4.6 mph - N/A   Partly Cloudy
1:55 PM 48.2°F 44.6°F 87% 30.37 in 10.0 miles NNE 3.5 mph - N/A   Mostly Cloudy
2:15 PM 48.2°F 44.6°F 87% 30.37 in 10.0 miles North 3.5 mph - N/A   Overcast
2:35 PM 48.2°F 44.6°F 87% 30.36 in 10.0 miles NNE 4.6 mph - N/A   Mostly Cloudy
2:55 PM 48.2°F 42.8°F 82% 30.36 in 10.0 miles East 3.5 mph - N/A   Mostly Cloudy
3:15 PM 48.2°F 42.8°F 82% 30.36 in 10.0 miles Calm Calm - N/A   Scattered Clouds
3:35 PM 50.0°F 42.8°F 76% 30.36 in 10.0 miles North 3.5 mph - N/A   Mostly Cloudy
3:55 PM 48.2°F 41.0°F 76% 30.36 in 10.0 miles North 3.5 mph - N/A   Overcast
4:15 PM 48.2°F 42.8°F 82% 30.36 in 10.0 miles Calm Calm - N/A   Overcast
4:35 PM 48.2°F 44.6°F 87% 30.36 in 10.0 miles Calm Calm - N/A   Overcast
4:55 PM 48.2°F 44.6°F 87% 30.36 in 10.0 miles Calm Calm - N/A   Overcast
5:15 PM 46.4°F 42.8°F 87% 30.35 in 10.0 miles Calm Calm - N/A   Mostly Cloudy
5:35 PM 46.4°F 44.6°F 93% 30.36 in 10.0 miles Calm Calm - N/A   Overcast
5:55 PM 46.4°F 44.6°F 93% 30.36 in 10.0 miles Calm Calm - N/A   Overcast
6:15 PM 46.4°F 44.6°F 93% 30.36 in 10.0 miles Calm Calm - N/A   Overcast
6:35 PM 46.4°F 44.6°F 93% 30.36 in 10.0 miles Calm Calm - N/A   Overcast
6:55 PM 46.4°F 44.6°F 93% 30.36 in 10.0 miles Calm Calm - N/A   Overcast
7:15 PM 44.6°F 42.8°F 93% 30.36 in 10.0 miles Calm Calm - N/A   Overcast
7:35 PM 44.6°F 42.8°F 93% 30.36 in 10.0 miles Calm Calm - N/A   Overcast
7:55 PM 42.8°F 42.8°F 100% 30.36 in 10.0 miles Calm Calm - N/A   Overcast
8:15 PM 42.8°F 42.8°F 100% 30.37 in 10.0 miles Calm Calm - N/A   Overcast
8:35 PM 41.0°F 41.0°F 100% 30.37 in 10.0 miles Calm Calm - N/A   Mostly Cloudy
8:55 PM 41.0°F 41.0°F 100% 30.38 in 7.0 miles Calm Calm - N/A   Mostly Cloudy
9:15 PM 39.2°F 39.2°F 100% 30.38 in 7.0 miles Calm Calm - N/A   Mostly Cloudy
9:35 PM 39.2°F 39.2°F 100% 30.38 in 4.0 miles Calm Calm - N/A   Partly Cloudy
9:55 PM 37.4°F 37.4°F 100% 30.38 in 1.2 miles Calm Calm - N/A   Overcast
10:15 PM 39.2°F 39.2°F 100% 30.38 in 4.0 miles Calm Calm - N/A   Mostly Cloudy
10:55 PM 41.0°F 41.0°F 100% 30.37 in 5.0 miles Calm Calm - N/A   Overcast
11:15 PM 41.0°F 41.0°F 100% 30.37 in 7.0 miles Calm Calm - N/A   Overcast
11:55 PM 41.0°F 41.0°F 100% 30.36 in 6.0 miles Calm Calm - N/A   Overcast
Moon Phase
Feb. 01 Feb. 03 Feb. 10 Feb. 17 Feb. 25
Sunrise:07:33 AM (PST) Moon Rise:11:55 PM (PST)
Sunset:05:12 PM (PST) Moon Set:09:43 AM (PST)

Copyright © 2014 The Weather Underground, Inc.